Summerland, British Columbia

4:17 PM PDT on June 24, 2017 (GMT -0700)
Summerland

Weather History for CWUS - November, 2012

Change the Weather History Date:

Monday, November 5, 2012

  Actual Average (CYYF) Record (CYYF)
Temperature  
Mean Temperature 54 °F -  
Max Temperature 64 °F 45 °F 62 °F (2012)
Min Temperature 44 °F 32 °F 17 °F (2003)
Degree Days  
Heating Degree Days 11    
Growing Degree Days 4 (Base 50)    
Moisture  
Dew Point 36 °F    
Average Humidity 56    
Maximum Humidity 91    
Minimum Humidity 17    
Precipitation  
Precipitation 0.00 in - - ()
Sea Level Pressure  
Sea Level Pressure 30.21 in    
Wind  
Wind Speed 7 mph ()    
Max Wind Speed 20 mph    
Max Gust Speed 36 mph    
Averages and records for this station are not official NWS values.
T = Trace of Precipitation, MM = Missing Value Source: Averaged Metar Reports

Daily Weather History Graph

Daily Weather History Graph

Search for Another Location

Airport or City:

Trip Planner

Search our weather history database for the weather conditions in past years. The results will help you decide how hot, cold, wet, or windy it might be!

Date:

Astronomy

Nov. 05, 2012 Rise Set
Actual Time 6:54 AM PST 4:28 PM PST
Civil Twilight 6:20 AM PST 5:03 PM PST
Nautical Twilight 5:42 AM PST 5:41 PM PST
Astronomical Twilight 5:05 AM PST 6:18 PM PST
Moon 10:12 PM PST (11/5) 12:17 PM PST (11/5)
Length of Visible Light 10h 42m
Length of Day
9h 34m
Waning Gibbous, 62% of the Moon is Illuminated
Nov 5
Waning Gibbous
Nov 6
Last Quarter
Nov 13
New
Nov 20
First Quarter
Nov 28
Full

Hourly Weather History & Observations

Time (PST) Temp. Windchill Dew Point Humidity Pressure Visibility Wind Dir Wind Speed Gust Speed Precip Events Conditions
12:00 AM 58.3 °F - 48.6 °F 70% 30.09 in - South 19.6 mph 35.7 mph N/A   Unknown
1:00 AM 58.3 °F - 48.9 °F 71% 30.09 in - South 18.4 mph 29.9 mph N/A   Unknown
2:00 AM 57.7 °F - 48.6 °F 71% 30.10 in - South 6.9 mph 18.4 mph N/A   Unknown
3:00 AM 53.8 °F - 48.4 °F 82% 30.08 in - SSE 3.5 mph - N/A   Unknown
4:00 AM 52 °F - 47 °F 79% 30.12 in - West 5.8 mph - -  
4:00 AM 52.0 °F - 47.5 °F 85% 30.12 in - West 5.8 mph - N/A   Unknown
5:00 AM 50.5 °F - 47.1 °F 88% 30.15 in - West 5.8 mph - N/A   Unknown
6:00 AM 48.2 °F - 45.5 °F 90% 30.18 in - WNW 8.1 mph - N/A   Unknown
7:00 AM 46.8 °F - 44.2 °F 91% 30.19 in - West 6.9 mph - N/A   Unknown
8:00 AM 48.7 °F - 42.8 °F 80% 30.24 in - WNW 5.8 mph - N/A   Unknown
9:00 AM 55.4 °F - 31.8 °F 41% 30.25 in - WNW 2.3 mph - N/A   Unknown
10:00 AM 58 °F - 26 °F 17% 30.26 in - NNW 5.8 mph - -  
10:00 AM 58.3 °F - 25.5 °F 28% 30.26 in - NNW 5.8 mph - N/A   Unknown
11:00 AM 60.1 °F - 25.3 °F 27% 30.27 in - NW 2.3 mph - N/A   Unknown
12:00 PM 59.9 °F - 27.5 °F 29% 30.26 in - SE 4.6 mph - N/A   Unknown
1:00 PM 60.1 °F - 26.1 °F 27% 30.26 in - SSE 4.6 mph - N/A   Unknown
2:00 PM 64.4 °F - 21.0 °F 19% 30.27 in - WSW 1.2 mph - N/A   Unknown
3:00 PM 54.7 °F - 31.5 °F 41% 30.27 in - Calm Calm - N/A   Unknown
4:00 PM 52 °F - 34 °F 38% 30.27 in - West 5.8 mph - -  
4:00 PM 51.8 °F - 33.8 °F 50% 30.27 in - West 5.8 mph - N/A   Unknown
5:00 PM 47.3 °F - 31.6 °F 55% 30.26 in - WNW 8.1 mph - N/A   Unknown
6:00 PM 47.7 °F - 29.8 °F 50% 30.27 in - WNW 6.9 mph - N/A   Unknown
7:00 PM 46.0 °F 43.1 °F 30.2 °F 54% 30.28 in - West 5.8 mph - N/A   Unknown
8:00 PM 44.4 °F 42.0 °F 30.2 °F 57% 30.26 in - West 4.6 mph - N/A   Unknown
9:00 PM 45.5 °F 43.2 °F 30.4 °F 56% 30.24 in - West 4.6 mph - N/A   Unknown
10:00 PM 45 °F - 31 °F 45% 30.23 in - WNW 5.8 mph - -  
10:00 PM 44.8 °F 41.6 °F 30.7 °F 58% 30.23 in - WNW 5.8 mph - N/A   Unknown
11:00 PM 44.2 °F 41.0 °F 31.5 °F 61% 30.22 in - WNW 5.8 mph - N/A   Unknown